Regional Weather Roundup
Issued by NWS

Home | Current Version | Previous Version | Text Only | Print | Product List | Glossary On
Versions: 1 2 3 4 5 6 7 8 9 10 11 12 13 14 15 16 17 18 19 20 21 22 23 24 25 26 27 28 29 30 31 32 33 34 35 36 37 38 39 40 41 42 43 44 45 46 47 48 49 50
000
ASUS43 KLOT 191210
RWRIL

ILLINOIS REGIONAL WEATHER ROUNDUP
NATIONAL WEATHER SERVICE CHICAGO/ROMEOVILLE IL
600 AM CST FRI DEC 19 2014

NOTE: "FAIR" INDICATES FEW OR NO CLOUDS BELOW 12,000 FEET WITH NO
SIGNIFICANT WEATHER AND/OR OBSTRUCTIONS TO VISIBILITY.

* THESE STATIONS ARE NOT UNDER NWS QUALITY CONTROL. THEY ALSO MAY NOT
  REPORT WEATHER SUCH AS PRECIPITATION OR FOG.

ILZ001-002-007-009-015-016-024-191300-
NORTHWEST ILLINOIS

CITY           SKY/WX    TMP DP  RH WIND       PRES   REMARKS
MOLINE         CLEAR     17  13  84 CALM      30.30R
6HR MIN TEMP:  15; 6HR MAX TEMP:  19;

STERLING*      CLOUDY    25  18  74 NW5       30.29R WCI  19
SAVANNA*       CLOUDY    26  19  76 N6        30.30R WCI  19
$$

ILZ003-004-008-010-011-017-018-191300-
NORTH CENTRAL ILLINOIS

CITY           SKY/WX    TMP DP  RH WIND       PRES   REMARKS
ROCKFORD       CLOUDY    27  20  75 NE3       30.30S
6HR MIN TEMP:  27; 6HR MAX TEMP:  28; 6HR PCP: TRACE;

FREEPORT*      CLOUDY    25  20  82 NW3       30.30S
ROCHELLE*      CLOUDY    26  22  85 N8        30.28S WCI  17
DE KALB*       CLOUDY    25  20  82 N7        30.27S WCI  17
PERU*          PTCLDY    19  17  91 W3        30.30R
$$

ILZ005-006-012>014-019>023-191300-
NORTHEAST ILLINOIS

CITY           SKY/WX    TMP DP  RH WIND       PRES   REMARKS
CHICAGO-OHARE  CLOUDY    28  22  78 N6        30.27R WCI  22
6HR MIN TEMP:  27; 6HR MAX TEMP:  28; 6HR PCP: TRACE;

CHICAGO-MIDWAY CLOUDY    30  24  78 NW5       30.27S WCI  25
6HR MIN TEMP:  29; 6HR MAX TEMP:  30; 6HR PCP: TRACE;

AURORA         CLOUDY    25  20  81 CALM      30.28S
6HR MIN TEMP:  24; 6HR MAX TEMP:  26;

LANSING*       CLOUDY    28  24  82 CALM      30.28R
JOLIET*        CLOUDY    26  21  83 CALM      30.29S
WAUKEGAN       CLOUDY    26  20  77 CALM      30.28R
6HR MIN TEMP:  26; 6HR MAX TEMP:  28;

DUPAGE AIRPORT CLOUDY    27  22  81 NW3       30.27R
6HR MIN TEMP:  26; 6HR MAX TEMP:  27;

KANKAKEE*      CLOUDY    26  21  82 CALM      30.29S
WHEELING       CLOUDY    28  22  78 N6        30.29S WCI  22
6HR MIN TEMP:  28; 6HR MAX TEMP:  28;

MORRIS*        CLEAR     18  17  93 CALM      30.28S
ROMEOVILLE*    CLOUDY    27  22  81 NW5       30.28R WCI  21
NORTHERLY ISL    N/A     30  23  75 MISG        N/A
$$

LMZ740>746-191300-
SOUTHERN LAKE MICHIGAN

STATION/POSITION SKY/WX   TEMP    WIND        PRES    VSBY  WAVE
                          AIR SEA DIR/SP/G                  HT/PER
                          (F)     (DEG/KT/KT) (MB)    (MI)  (FT/S)
WAUKEGAN HARBOR            27     310/  8/ 13   N/A
HARRISON CRIB              30     340/  9/ 12   N/A
BURNHAM HARBOR             29     360/  5/  7   N/A
CALUMET HARBOR             29     290/  3/  6 1023.9R
$$

ILZ025>027-034>036-040-047-049-050-058-095>099-191300-
WEST-CENTRAL ILLINOIS

CITY           SKY/WX    TMP DP  RH WIND       PRES   REMARKS
QUINCY         CLOUDY    28  25  88 NE5       30.28S WCI  23
GALESBURG*     CLEAR     20  18  91 CALM      30.30R
MACOMB*        CLOUDY    26  23  87 E6        30.32S WCI  19
JACKSONVILLE*  CLOUDY    30  26  83 CALM      30.29F
PITTSFIELD*    CLOUDY    30  28  90 NE3       30.29S
$$

ILZ028>032-037-038-041>044-048-051>054-059>061-191300-
CENTRAL ILLINOIS

CITY           SKY/WX    TMP DP  RH WIND       PRES   REMARKS
PONTIAC        CLEAR     17  15  91 CALM      30.30S
BLOOMINGTON    CLEAR     20  18  92 CALM      30.29S
DECATUR        CLEAR     20  17  88 CALM      30.29F FOG
PEORIA         CLEAR     19  14  81 CALM      30.31R HAZE
6HR MIN TEMP:  19; 6HR MAX TEMP:  23;

LACON*         CLEAR     14  11  87 CALM      30.30S
LINCOLN*       CLEAR     19  18  93 CALM      30.32R FOG
SPRINGFIELD    CLEAR     25  21  85 NE5       30.30S WCI  19
6HR MIN TEMP:  25; 6HR MAX TEMP:  30;

TAYLORVILLE    CLOUDY    28  23  80 NE3       30.29F
$$

ILZ033-039-045-046-055>057-062-063-191300-
EAST-CENTRAL ILLINOIS

CITY           SKY/WX    TMP DP  RH WIND       PRES   REMARKS
CHAMPAIGN      CLEAR     16  13  88 CALM      30.28F
DANVILLE*      FAIR      18  16  93 NW3       30.26S
RANTOUL*       CLEAR     19  17  89 CALM      30.29S
MATTOON        CLEAR     21  18  88 N3        30.28F
PARIS*         CLEAR     21  19  94 CALM      30.31R
$$

ILZ079-100>102-191300-
SOUTHWEST ILLINOIS

CITY           SKY/WX    TMP DP  RH WIND       PRES   REMARKS
BELLEVILLE     CLEAR     27  27  99 NE1       30.28S
CAHOKIA*       CLOUDY    31  27  85 NE6       30.28S WCI  25
SPARTA*        PTCLDY    29  26  89 CALM      30.29R
$$

ILZ064>066-069>071-074>076-080>082-084>086-088>090-092>094-191300-
SOUTH-CENTRAL ILLINOIS

CITY           SKY/WX    TMP DP  RH WIND       PRES   REMARKS
CARBONDALE     CLOUDY    32  26  78 CALM      30.30R
6HR MIN TEMP:  31; 6HR MAX TEMP:  32;

CAIRO*         CLOUDY    36  30  80 N7        30.27F WCI  30
EFFINGHAM*     CLEAR     25  22  89 CALM      30.30F FOG
MARION         CLOUDY    32  28  86 CALM      30.31R
MT. VERNON     PTCLDY    28  21  74 CALM      30.29R
CENTRALIA*     PTCLDY    30  26  84 NE6       30.28S WCI  24
SALEM*         MOCLDY    31  26  84 NE6       30.28F FOG     WCI  25
METROPOLIS*    CLOUDY    33  31  92 N3        30.28R FOG
$$

ILZ067-068-072-073-078-083-087-091-191300-
SOUTHEAST ILLINOIS

CITY           SKY/WX    TMP DP  RH WIND       PRES   REMARKS
LAWRENCEVILLE  MOCLDY    27  23  85 N7        30.29F WCI  19
FLORA*         CLEAR     27  24  89 NE5       30.29F FOG     WCI  21
FAIRFIELD*     CLEAR     28  25  89 NE6       30.28S FOG     WCI  22
HARRISBURG*    CLOUDY    31  28  85 NE3       30.31R
ROBINSON*      CLEAR     26  23  89 N3        30.31F
CARMI*         CLOUDY    32  29  89 N7        30.28S WCI  26
$$

ABBREVIATIONS USED IN REMARKS
   TC - TEMPERATURE IN CELSIUS
  WCI - WIND CHILL INDEX
   HX - HEAT INDEX
  VSB - VISIBILITY
$$



USA.gov is the U.S. government's official web portal to all federal, state and local government web resources and services.